Location: Aragoneses
(41.0275°N, 4.3847°W)
Time: 20:12:04
(UTC+00:00)

Cosmos 2263 Rocket - Pass Details

Date: 11 December 2025
Orbit: 821 x 849 km, 71.0° (Epoch: 12 January)

Event Time Altitude Azimuth Distance (km) Brightness Sun altitude
Rises 18:20:59 0° 339° (NNW) 3,408 5.4 -16.7°
Reaches altitude 10° 18:23:28 10° 343° (NNW) 2,472 4.6 -17.1°
Maximum altitude 18:29:05 61° 64° (ENE) 960 2.2 -18.2°
Drops below altitude 10° 18:34:42 10° 144° (SE) 2,466 4.4 -19.2°
Sets 18:37:10 0° 148° (SSE) 3,398 5.2 -19.6°
